Time,TemperatureF,DewpointF,PressureIn,WindDirection,WindDirectionDegrees,WindSpeedMPH,WindSpeedGustMPH,Humidity,HourlyPrecipIn,Conditions,Clouds,dailyrainin,SoftwareType,DateUTC
2013-06-30 00:02:00,63.0,56.0,29.83,SSE,152,7.0,10.0,79,0.00,,,0.00,,2013-06-30 06:02:00,
2013-06-30 00:12:00,62.0,56.0,29.82,SSE,162,8.0,10.0,81,0.00,,,0.00,,2013-06-30 06:12:00,
2013-06-30 00:23:00,62.0,56.0,29.81,SSE,158,7.0,10.0,81,0.00,,,0.00,,2013-06-30 06:23:00,
2013-06-30 00:34:00,62.0,56.0,29.81,SSE,158,7.0,10.0,81,0.00,,,0.00,,2013-06-30 06:34:00,
2013-06-30 00:43:00,62.0,56.0,29.81,NW,304,5.0,7.0,81,0.00,,,0.00,,2013-06-30 06:43:00,
2013-06-30 00:53:00,62.0,55.0,29.80,NNE,32,0.0,6.0,79,0.00,,,0.00,,2013-06-30 06:53:00,
2013-06-30 01:02:00,62.0,55.0,29.80,NNE,32,0.0,6.0,79,0.00,,,0.00,,2013-06-30 07:02:00,
2013-06-30 01:12:00,62.0,55.0,29.80,SW,221,2.0,4.0,77,0.00,,,0.00,,2013-06-30 07:12:00,
2013-06-30 01:22:00,62.0,55.0,29.79,WSW,257,1.0,5.0,77,0.00,,,0.00,,2013-06-30 07:22:00,
2013-06-30 01:33:00,62.0,55.0,29.79,WSW,257,1.0,5.0,77,0.00,,,0.00,,2013-06-30 07:33:00,
2013-06-30 01:44:00,61.0,54.0,29.78,WSW,256,0.0,0.0,77,0.00,,,0.00,,2013-06-30 07:44:00,
2013-06-30 01:53:00,60.0,52.0,29.77,West,275,8.0,10.0,74,0.00,,,0.00,,2013-06-30 07:53:00,
2013-06-30 02:02:00,60.0,52.0,29.77,West,275,8.0,10.0,74,0.00,,,0.00,,2013-06-30 08:02:00,
2013-06-30 02:12:00,63.0,53.0,29.77,NW,316,3.0,10.0,69,0.00,,,0.00,,2013-06-30 08:12:00,
2013-06-30 02:22:00,62.0,52.0,29.76,West,280,2.0,8.0,71,0.00,,,0.00,,2013-06-30 08:22:00,
2013-06-30 02:33:00,62.0,52.0,29.76,West,280,2.0,8.0,71,0.00,,,0.00,,2013-06-30 08:33:00,
2013-06-30 02:42:00,62.0,51.0,29.76,WSW,257,5.0,11.0,68,0.00,,,0.00,,2013-06-30 08:42:00,
2013-06-30 02:53:00,63.0,51.0,29.75,NW,311,3.0,9.0,64,0.00,,,0.00,,2013-06-30 08:53:00,
2013-06-30 03:01:00,63.0,51.0,29.75,NW,311,3.0,9.0,64,0.00,,,0.00,,2013-06-30 09:01:00,
2013-06-30 03:12:00,63.0,51.0,29.76,NW,315,3.0,7.0,64,0.00,,,0.00,,2013-06-30 09:12:00,
2013-06-30 03:23:00,62.0,50.0,29.75,NW,321,0.0,4.0,65,0.00,,,0.00,,2013-06-30 09:23:00,
2013-06-30 03:33:00,62.0,50.0,29.75,NW,321,0.0,4.0,65,0.00,,,0.00,,2013-06-30 09:33:00,
2013-06-30 03:43:00,62.0,50.0,29.75,NW,321,0.0,2.0,65,0.00,,,0.00,,2013-06-30 09:43:00,
2013-06-30 03:53:00,60.0,50.0,29.75,WNW,300,1.0,4.0,69,0.00,,,0.00,,2013-06-30 09:53:00,
2013-06-30 04:02:00,60.0,50.0,29.75,WNW,300,1.0,4.0,69,0.00,,,0.00,,2013-06-30 10:02:00,
2013-06-30 04:11:00,60.0,51.0,29.75,South,176,2.0,5.0,71,0.00,,,0.00,,2013-06-30 10:11:00,
2013-06-30 04:22:00,59.0,51.0,29.75,West,268,3.0,5.0,74,0.00,,,0.00,,2013-06-30 10:22:00,
2013-06-30 04:33:00,59.0,51.0,29.75,West,268,3.0,5.0,74,0.00,,,0.00,,2013-06-30 10:33:00,
2013-06-30 04:42:00,59.0,50.0,29.76,West,269,4.0,7.0,73,0.00,,,0.00,,2013-06-30 10:42:00,
2013-06-30 05:02:00,59.0,50.0,29.76,SSE,168,1.0,6.0,73,0.00,,,0.00,,2013-06-30 11:02:00,
2013-06-30 05:11:00,59.0,50.0,29.77,WSW,257,1.0,4.0,71,0.00,,,0.00,,2013-06-30 11:11:00,
2013-06-30 05:22:00,59.0,50.0,29.77,WSW,257,3.0,5.0,72,0.00,,,0.00,,2013-06-30 11:22:00,
2013-06-30 05:33:00,59.0,50.0,29.77,WSW,257,3.0,5.0,72,0.00,,,0.00,,2013-06-30 11:33:00,
2013-06-30 05:43:00,60.0,50.0,29.78,NW,319,0.0,5.0,70,0.00,,,0.00,,2013-06-30 11:43:00,
2013-06-30 05:53:00,59.0,50.0,29.79,NW,319,0.0,2.0,72,0.00,,,0.00,,2013-06-30 11:53:00,
2013-06-30 06:02:00,59.0,50.0,29.79,NW,319,0.0,2.0,72,0.00,,,0.00,,2013-06-30 12:02:00,
2013-06-30 06:11:00,59.0,50.0,29.79,SSW,207,2.0,4.0,73,0.00,,,0.00,,2013-06-30 12:11:00,
2013-06-30 06:24:00,61.0,52.0,29.80,South,182,1.0,3.0,72,0.00,,,0.00,,2013-06-30 12:24:00,
2013-06-30 06:33:00,61.0,52.0,29.80,South,182,1.0,3.0,72,0.00,,,0.00,,2013-06-30 12:33:00,
2013-06-30 06:43:00,61.0,52.0,29.79,NW,313,0.0,4.0,72,0.00,,,0.00,,2013-06-30 12:43:00,
2013-06-30 06:52:00,60.0,52.0,29.80,ENE,69,1.0,3.0,76,0.00,,,0.00,,2013-06-30 12:52:00,
2013-06-30 07:02:00,60.0,52.0,29.80,ENE,69,1.0,3.0,76,0.00,,,0.00,,2013-06-30 13:02:00,
2013-06-30 07:12:00,61.0,53.0,29.79,East,86,0.0,0.0,74,0.00,,,0.00,,2013-06-30 13:12:00,
2013-06-30 07:22:00,63.0,53.0,29.80,SSE,165,0.0,4.0,69,0.00,,,0.00,,2013-06-30 13:22:00,
2013-06-30 07:33:00,63.0,53.0,29.80,SSE,165,0.0,4.0,69,0.00,,,0.00,,2013-06-30 13:33:00,
2013-06-30 07:43:00,64.0,54.0,29.80,South,179,0.0,0.0,69,0.00,,,0.00,,2013-06-30 13:43:00,
2013-06-30 07:53:00,65.0,54.0,29.80,SE,139,2.0,5.0,67,0.00,,,0.00,,2013-06-30 13:53:00,
2013-06-30 08:02:00,65.0,54.0,29.80,SE,139,2.0,5.0,67,0.00,,,0.00,,2013-06-30 14:02:00,
2013-06-30 08:11:00,66.0,54.0,29.80,ENE,63,5.0,7.0,65,0.00,,,0.00,,2013-06-30 14:11:00,
2013-06-30 08:22:00,66.0,54.0,29.80,NNE,25,3.0,5.0,66,0.00,,,0.00,,2013-06-30 14:22:00,
2013-06-30 08:33:00,66.0,54.0,29.80,NNE,25,3.0,5.0,66,0.00,,,0.00,,2013-06-30 14:33:00,
2013-06-30 08:44:00,67.0,54.0,29.81,NNE,33,2.0,5.0,63,0.00,,,0.00,,2013-06-30 14:44:00,
2013-06-30 09:02:00,68.0,55.0,29.81,NE,42,2.0,5.0,64,0.00,,,0.00,,2013-06-30 15:02:00,
2013-06-30 09:12:00,68.0,55.0,29.81,East,92,0.0,6.0,63,0.00,,,0.00,,2013-06-30 15:12:00,
2013-06-30 09:34:00,69.0,55.0,29.80,NNE,24,2.0,5.0,60,0.00,,,0.00,,2013-06-30 15:34:00,
2013-06-30 09:44:00,69.0,55.0,29.80,NNW,340,2.0,6.0,60,0.00,,,0.00,,2013-06-30 15:44:00,
2013-06-30 10:01:00,70.0,54.0,29.79,East,99,2.0,6.0,57,0.00,,,0.00,,2013-06-30 16:01:00,
2013-06-30 10:11:00,71.0,54.0,29.79,NE,44,2.0,6.0,56,0.00,,,0.00,,2013-06-30 16:11:00,
2013-06-30 10:34:00,72.0,55.0,29.79,NNW,344,3.0,5.0,55,0.00,,,0.00,,2013-06-30 16:34:00,
2013-06-30 10:44:00,72.0,55.0,29.79,ENE,73,3.0,7.0,55,0.00,,,0.00,,2013-06-30 16:44:00,
2013-06-30 10:53:00,72.0,55.0,29.79,ENE,73,3.0,7.0,55,0.00,,,0.00,,2013-06-30 16:53:00,
2013-06-30 11:01:00,73.0,55.0,29.79,NNE,23,2.0,7.0,53,0.00,,,0.00,,2013-06-30 17:01:00,
2013-06-30 11:11:00,74.0,55.0,29.79,NE,55,4.0,7.0,52,0.00,,,0.00,,2013-06-30 17:11:00,
2013-06-30 11:23:00,74.0,55.0,29.79,NE,55,4.0,7.0,52,0.00,,,0.00,,2013-06-30 17:23:00,
2013-06-30 11:34:00,75.0,56.0,29.78,NE,34,1.0,4.0,51,0.00,,,0.00,,2013-06-30 17:34:00,
2013-06-30 11:43:00,75.0,55.0,29.78,NNE,17,4.0,6.0,50,0.00,,,0.00,,2013-06-30 17:43:00,
2013-06-30 11:52:00,75.0,55.0,29.78,NNE,17,4.0,6.0,50,0.00,,,0.00,,2013-06-30 17:52:00,
2013-06-30 12:02:00,76.0,55.0,29.78,North,5,3.0,8.0,48,0.00,,,0.00,,2013-06-30 18:02:00,
2013-06-30 12:12:00,77.0,53.0,29.78,North,360,0.0,5.0,44,0.00,,,0.00,,2013-06-30 18:12:00,
2013-06-30 12:22:00,77.0,53.0,29.78,North,360,0.0,5.0,44,0.00,,,0.00,,2013-06-30 18:22:00,
2013-06-30 12:34:00,78.0,53.0,29.78,ESE,113,2.0,7.0,42,0.00,,,0.00,,2013-06-30 18:34:00,
2013-06-30 12:43:00,79.0,52.0,29.78,East,94,2.0,7.0,39,0.00,,,0.00,,2013-06-30 18:43:00,
2013-06-30 12:53:00,79.0,52.0,29.78,East,94,2.0,7.0,39,0.00,,,0.00,,2013-06-30 18:53:00,
2013-06-30 13:01:00,80.0,50.0,29.78,South,169,2.0,7.0,35,0.00,,,0.00,,2013-06-30 19:01:00,
2013-06-30 13:11:00,82.0,50.0,29.77,ESE,111,6.0,10.0,33,0.00,,,0.00,,2013-06-30 19:11:00,
2013-06-30 13:22:00,82.0,50.0,29.77,ESE,111,6.0,10.0,33,0.00,,,0.00,,2013-06-30 19:22:00,
2013-06-30 13:33:00,81.0,48.0,29.77,East,90,6.0,9.0,32,0.00,,,0.00,,2013-06-30 19:33:00,
2013-06-30 13:43:00,82.0,47.0,29.77,North,11,2.0,12.0,30,0.00,,,0.00,,2013-06-30 19:43:00,
2013-06-30 13:53:00,82.0,47.0,29.77,North,11,2.0,12.0,30,0.00,,,0.00,,2013-06-30 19:53:00,
2013-06-30 14:01:00,82.0,47.0,29.77,ESE,110,4.0,12.0,30,0.00,,,0.00,,2013-06-30 20:01:00,
2013-06-30 14:11:00,84.0,49.0,29.77,NE,51,10.0,14.0,30,0.00,,,0.00,,2013-06-30 20:11:00,
2013-06-30 14:22:00,84.0,49.0,29.77,NE,51,10.0,14.0,30,0.00,,,0.00,,2013-06-30 20:22:00,
2013-06-30 14:34:00,84.0,49.0,29.77,North,355,4.0,9.0,30,0.00,,,0.00,,2013-06-30 20:34:00,
2013-06-30 14:42:00,84.0,47.0,29.77,ENE,71,6.0,15.0,28,0.00,,,0.00,,2013-06-30 20:42:00,
2013-06-30 14:52:00,84.0,47.0,29.77,ENE,71,6.0,15.0,28,0.00,,,0.00,,2013-06-30 20:52:00,
2013-06-30 15:01:00,85.0,48.0,29.76,NNE,13,5.0,11.0,28,0.00,,,0.00,,2013-06-30 21:01:00,
2013-06-30 15:11:00,84.0,49.0,29.76,NNE,13,1.0,13.0,30,0.00,,,0.00,,2013-06-30 21:11:00,
2013-06-30 15:22:00,84.0,49.0,29.76,NNE,13,1.0,13.0,30,0.00,,,0.00,,2013-06-30 21:22:00,
2013-06-30 15:34:00,85.0,50.0,29.76,NE,42,13.0,16.0,30,0.00,,,0.00,,2013-06-30 21:34:00,
2013-06-30 15:42:00,85.0,50.0,29.75,NNE,25,11.0,16.0,30,0.00,,,0.00,,2013-06-30 21:42:00,
2013-06-30 15:53:00,85.0,50.0,29.75,NNE,25,11.0,16.0,30,0.00,,,0.00,,2013-06-30 21:53:00,
2013-06-30 16:01:00,85.0,52.0,29.75,NNE,29,11.0,23.0,32,0.00,,,0.00,,2013-06-30 22:01:00,
2013-06-30 16:11:00,84.0,52.0,29.75,NNE,20,13.0,27.0,33,0.00,,,0.00,,2013-06-30 22:11:00,
2013-06-30 16:22:00,84.0,52.0,29.75,NNE,20,13.0,27.0,33,0.00,,,0.00,,2013-06-30 22:22:00,
2013-06-30 16:34:00,84.0,53.0,29.75,North,355,11.0,21.0,34,0.00,,,0.00,,2013-06-30 22:34:00,
2013-06-30 16:43:00,84.0,52.0,29.75,NNW,346,14.0,18.0,33,0.00,,,0.00,,2013-06-30 22:43:00,
2013-06-30 16:52:00,84.0,52.0,29.75,NNW,346,14.0,18.0,33,0.00,,,0.00,,2013-06-30 22:52:00,
2013-06-30 17:01:00,85.0,51.0,29.75,NE,40,12.0,23.0,31,0.00,,,0.00,,2013-06-30 23:01:00,
2013-06-30 17:11:00,85.0,49.0,29.74,North,5,11.0,17.0,29,0.00,,,0.00,,2013-06-30 23:11:00,
2013-06-30 17:22:00,85.0,49.0,29.74,North,5,11.0,17.0,29,0.00,,,0.00,,2013-06-30 23:22:00,
2013-06-30 17:33:00,86.0,53.0,29.74,NNE,31,11.0,17.0,32,0.00,,,0.00,,2013-06-30 23:33:00,
2013-06-30 17:43:00,85.0,52.0,29.74,North,360,10.0,19.0,32,0.00,,,0.00,,2013-06-30 23:43:00,
2013-06-30 17:53:00,85.0,52.0,29.74,North,360,10.0,19.0,32,0.00,,,0.00,,2013-06-30 23:53:00,
2013-06-30 18:01:00,85.0,53.0,29.74,NNE,28,9.0,21.0,34,0.00,,,0.00,,2013-07-01 00:01:00,
2013-06-30 18:11:00,85.0,53.0,29.74,NNE,28,9.0,21.0,34,0.00,,,0.00,,2013-07-01 00:11:00,
2013-06-30 18:22:00,85.0,53.0,29.74,NNE,28,9.0,21.0,34,0.00,,,0.00,,2013-07-01 00:22:00,
2013-06-30 18:33:00,82.0,53.0,29.74,NNE,33,13.0,20.0,37,0.00,,,0.00,,2013-07-01 00:33:00,
2013-06-30 18:42:00,82.0,54.0,29.74,North,355,10.0,18.0,38,0.00,,,0.00,,2013-07-01 00:42:00,
2013-06-30 18:52:00,82.0,54.0,29.74,North,355,10.0,18.0,38,0.00,,,0.00,,2013-07-01 00:52:00,
2013-06-30 19:01:00,81.0,53.0,29.74,North,360,7.0,14.0,38,0.00,,,0.00,,2013-07-01 01:01:00,
2013-06-30 19:11:00,81.0,53.0,29.74,North,360,7.0,14.0,38,0.00,,,0.00,,2013-07-01 01:11:00,
2013-06-30 19:22:00,82.0,52.0,29.74,NNE,23,8.0,14.0,36,0.00,,,0.00,,2013-07-01 01:22:00,
2013-06-30 19:33:00,82.0,52.0,29.74,NNE,23,8.0,14.0,36,0.00,,,0.00,,2013-07-01 01:33:00,
2013-06-30 19:42:00,81.0,52.0,29.75,NE,41,13.0,17.0,37,0.00,,,0.00,,2013-07-01 01:42:00,
2013-06-30 19:52:00,81.0,52.0,29.75,NE,41,13.0,17.0,37,0.00,,,0.00,,2013-07-01 01:52:00,
2013-06-30 20:02:00,80.0,52.0,29.76,NE,36,11.0,18.0,38,0.00,,,0.00,,2013-07-01 02:02:00,
2013-06-30 20:11:00,79.0,51.0,29.76,NNW,345,6.0,18.0,38,0.00,,,0.00,,2013-07-01 02:11:00,
2013-06-30 20:22:00,79.0,51.0,29.76,NNW,345,6.0,18.0,38,0.00,,,0.00,,2013-07-01 02:22:00,
2013-06-30 20:33:00,78.0,51.0,29.76,NNW,338,8.0,12.0,39,0.00,,,0.00,,2013-07-01 02:33:00,
2013-06-30 20:43:00,78.0,52.0,29.77,WNW,300,5.0,11.0,40,0.00,,,0.00,,2013-07-01 02:43:00,
2013-06-30 20:53:00,78.0,52.0,29.77,WNW,300,5.0,11.0,40,0.00,,,0.00,,2013-07-01 02:53:00,
2013-06-30 21:01:00,77.0,52.0,29.77,NW,306,4.0,6.0,42,0.00,,,0.00,,2013-07-01 03:01:00,
2013-06-30 21:11:00,76.0,52.0,29.78,West,277,6.0,9.0,44,0.00,,,0.00,,2013-07-01 03:11:00,
2013-06-30 21:23:00,76.0,52.0,29.78,West,277,6.0,9.0,44,0.00,,,0.00,,2013-07-01 03:23:00,
2013-06-30 21:33:00,75.0,52.0,29.78,West,265,6.0,10.0,44,0.00,,,0.00,,2013-07-01 03:33:00,
2013-06-30 21:43:00,75.0,52.0,29.79,West,272,6.0,9.0,44,0.00,,,0.00,,2013-07-01 03:43:00,
2013-06-30 21:52:00,75.0,52.0,29.79,West,272,6.0,9.0,44,0.00,,,0.00,,2013-07-01 03:52:00,
2013-06-30 22:01:00,75.0,50.0,29.80,WNW,290,7.0,10.0,42,0.00,,,0.00,,2013-07-01 04:01:00,
2013-06-30 22:11:00,74.0,51.0,29.80,West,276,7.0,10.0,45,0.00,,,0.00,,2013-07-01 04:11:00,
2013-06-30 22:22:00,74.0,51.0,29.80,West,276,7.0,10.0,45,0.00,,,0.00,,2013-07-01 04:22:00,
2013-06-30 22:32:00,74.0,51.0,29.80,West,276,7.0,10.0,45,0.00,,,0.00,,2013-07-01 04:32:00,
2013-06-30 22:42:00,74.0,51.0,29.80,West,276,7.0,10.0,45,0.00,,,0.00,,2013-07-01 04:42:00,
2013-06-30 22:53:00,74.0,51.0,29.81,WNW,296,8.0,11.0,44,0.00,,,0.00,,2013-07-01 04:53:00,
2013-06-30 23:01:00,72.0,52.0,29.81,WNW,283,7.0,10.0,49,0.00,,,0.00,,2013-07-01 05:01:00,
2013-06-30 23:11:00,72.0,51.0,29.81,West,277,7.0,10.0,48,0.00,,,0.00,,2013-07-01 05:11:00,
2013-06-30 23:22:00,72.0,51.0,29.81,West,277,7.0,10.0,48,0.00,,,0.00,,2013-07-01 05:22:00,
2013-06-30 23:33:00,72.0,50.0,29.81,West,279,8.0,10.0,46,0.00,,,0.00,,2013-07-01 05:33:00,
2013-06-30 23:42:00,72.0,50.0,29.81,West,259,7.0,10.0,46,0.00,,,0.00,,2013-07-01 05:42:00,
2013-06-30 23:52:00,72.0,50.0,29.81,West,259,7.0,10.0,46,0.00,,,0.00,,2013-07-01 05:52:00,